Hourly Data Report for July 26, 2021

SECHELT AUT
BRITISH COLUMBIA
Current Station Operator: ECCC - MSC

49°27'28.788" N
123°42'54.945" W
86.20 m
1047172
71638
VOU

Download Data

Hourly Data (July 2021)
Hourly Data Report for July 26, 2021
TIME
LST
Temp Definition
°C
Dew Point Definition
°C
Rel Hum Definition
%
Precip. Amount Definition
mm

Wind Dir Definition
10's deg

Wind Spd Definition
km/h
Visibility Definition
km
Stn Press Definition
kPa
Hmdx Definition


Wind Chill Definition


Weather Definition


00:00 16.9 13.2 79 0.0 0 1   100.53     LegendNANA
01:00 16.2 13.2 82 0.0   0   100.54     LegendNANA
02:00 15.1 12.8 86 0.0   0   100.55     LegendNANA
03:00 14.8 12.6 87 0.0   0   100.57     LegendNANA
04:00 14.5 12.7 89 0.0   0   100.56     LegendNANA
05:00 14.7 13.1 90 0.0   0   100.56     LegendNANA
06:00 17.0 14.0 83 0.0 9 5   100.60     LegendNANA
07:00 19.2 15.7 80 0.0 15 7   100.60     LegendNANA
08:00 18.9 15.6 81 0.0 16 8   100.60     LegendNANA
09:00 20.9 15.5 71 0.0 14 14   100.62 25   LegendNANA
10:00 20.6 14.8 69 0.0 16 10   100.60     LegendNANA
11:00 23.3 16.1 64 0.0 14 11   100.58 28   LegendNANA
12:00 23.5 15.7 62 0.0 15 11   100.57 28   LegendNANA
13:00 24.1 15.8 60 0.0 15 11   100.55 29   LegendNANA
14:00 22.9 14.8 60 0.0 15 9   100.52 27   LegendNANA
15:00 25.6 14.8 51 0.0 15 8   100.45 29   LegendNANA
16:00 24.8 13.9 51 0.0 14 9   100.40 28   LegendNANA
17:00 25.0 14.6 53 0.0 14 6   100.37 29   LegendNANA
18:00 24.7 14.0 51 0.0 17 5   100.34 28   LegendNANA
19:00 23.3 13.2 53 0.0 16 6   100.34 26   LegendNANA
20:00 21.1 13.8 63 0.0 4 2   100.37     LegendNANA
21:00 19.3 14.0 71 0.0 34 2   100.39     LegendNANA
22:00 18.7 13.6 72 0.0 32 3   100.41     LegendNANA
23:00 17.5 12.9 74 0.0 34 2   100.43     LegendNANA

Notes on Data Quality.

Legend

  • E = Estimated
  • M = Missing
  • NA = Not Available*
  • [empty] = Indicates an unobserved value
Date modified: